Location: Grand Lay
(47.3253°N, 0.9468°E)
Time: 08:28:56
(UTC+00:00)

Lacrosse 5 rocket - Pass Details

Date: 18 January 2026
Orbit: 401 x 481 km, 57.0° (Epoch: 15 February)

Event Time Altitude Azimuth Distance (km) Brightness Sun altitude
Exits shadow 06:57:33 - 314° (NW) 1,907 3.5 -6.8°
Reaches altitude 10° 06:58:09 10° 317° (NW) 1,681 3.2 -6.7°
Maximum altitude 07:01:43 37° 27° (NNE) 769 2.1 -6.1°
Drops below altitude 10° 07:05:15 10° 96° (E) 1,670 5.3 -5.6°
Sets 07:07:30 0° 105° (ESE) 2,541 7.0 -5.2°
